ARIANE 44LP DEB, 27662

Orbit data source: Space-Track

ARIANE 44LP DEB, 27662 is space debris in HEO originally from a launch on Sat, 02 Mar 1991 UTC launched from the French Guiana (FRGUI). Debris objects in space refer to the collection of defunct objects orbiting the Earth. Examples of debris include non-operational satellites, rocket bodies, and fragments generated from explosions, collisions, or faulty payload assembly.

Loading next visibility...
Identifier
27662, 1991-015N
Orbit
HEO
Country
Flag of FRFR
Related business
Manufacturer
Unknown
Mission
Spacecraft
Bus & Motor
Unknown
Mass
Unknown
Launch date (UTC)
1991-03-02 (35 years ago)
Launch vehicle
Unknown
Launch site
French Guiana (FRGUI)
Object type
Payload
Rocket body
Debris
Shape & HBR
Unknown shape, 1.4 m
Radar Cross Section
Medium (>0.1 m² and <1 m²)

Expand to show TLE details & history
Last TLE update: 1 month ago

TLE from 1 month ago
0 ARIANE 44LP DEB
1 27662U 91015N   26128.92626718  .00001016  00000-0  88679-3 0  9998
2 27662   5.4226  41.1180 6005185 234.6700  53.5292  3.93854725176440
Epoch: 2026-05-08T22:13Z
TLE epoch observation values (Epoch: 2026-05-08T22:13:49.484Z)
Latitude
Longitude
-159.19395°
Altitude
10,200.193 km
Speed
4.955 km/s
True Right ascension
02h 44m 03s
True Declination
0° 00' 00"
Sunlit
Object was in daylight at epoch
Visualization orbit readout
Latitude
Unknown
Longitude
Unknown
Altitude
Unknown
Speed
Unknown
Apparent Right ascension
Unknown
Apparent Declination
Unknown
Sunlit
N/A
Visualization observer readout
Local Sidereal Time
23:20:57
Azimuth
Unknown
Elevation
Unknown
Doppler factor
Unknown
Orbital elements
Apogee altitude
20,738.393 km
Perigee altitude
390.015 km
Semi-major axis
16,942.341 km
Eccentricity
0.60052
Inclination
5.4226°
RAAN
41.118°
Arg. of periapsis
234.67°
True anomaly
125.2202°
Mean anomaly
53.5292°
Eccentric anomaly
87.91357°
Mean motion
0.9842 °/min
Orbital period
365.78 mins
BSTAR
0.00088679
Loading maneuver chart data...
Computing Atmospheric mass density...

Documentation

Showing up to 5 results
|